Location: *
(51.1248°S, 108.4023°W)
Time: 04:15:03
(UTC+00:00)

SME Rocket - Pass Details

Date: 15 June 2021
Orbit: 551 x 2651 km, 99.9° (Epoch: 31 July)

Event Time Altitude Azimuth Distance (km) Brightness Sun altitude
Rises 13:46:39 0° 163° (SSE) 4,153 7.2 -13.1°
Reaches altitude 10° 13:49:46 10° 160° (SSE) 2,884 6.5 -12.7°
Maximum altitude 13:55:51 67° 77° (ENE) 847 4.0 -11.8°
Drops below altitude 10° 14:00:05 10° 354° (N) 2,032 5.9 -11.2°
Sets 14:01:59 0° 350° (N) 2,836 6.6 -10.9°
